When you browse on this site, cookies collect data to enhance your experience and personalize the content and advertising you see.
Visit our Privacy Policy to learn more. By continuing to use the site, you agree to this use of cookies and data.
  • In Romania
  • List of Countries
  • For 7 days
  • Water Temperature
  • Satellite Maps
  • Weather Map
  • Weather Widgets
  • user-avatar
    Login

    Hourly Weather Saurimo

    Today, 24 June, Monday

    Time Temperature Precipitation Wind Pressure Humidity
    00:00 +15°C° 0 mm 1 mps 670 mmHg 39%
    01:00 +14°C° 0 mm 1 mps 670 mmHg 42%
    02:00 +14°C° 0 mm 1 mps 670 mmHg 43%
    03:00 +14°C° 0 mm 1 mps 670 mmHg 45%
    04:00 +13°C° 0 mm 1 mps 669 mmHg 46%
    05:00 +14°C° 0 mm 1 mps 670 mmHg 46%
    06:00 +14°C° 0 mm 1 mps 670 mmHg 46%
    07:00 +16°C° 0 mm 1 mps 671 mmHg 47%
    08:00 +20°C° 0 mm 2 mps 672 mmHg 41%
    09:00 +24°C° 0 mm 2 mps 672 mmHg 34%
    10:00 +28°C° 0 mm 3 mps 673 mmHg 28%
    11:00 +30°C° 0 mm 2 mps 673 mmHg 25%
    12:00 +31°C° 0 mm 2 mps 672 mmHg 21%
    13:00 +34°C° 0 mm 2 mps 672 mmHg 18%
    14:00 +32°C° 0 mm 2 mps 671 mmHg 19%
    15:00 +31°C° 0 mm 1 mps 671 mmHg 19%
    16:00 +31°C° 0 mm 1 mps 670 mmHg 19%
    17:00 +28°C° 0 mm 1 mps 670 mmHg 24%
    18:00 +25°C° 0 mm 1 mps 670 mmHg 29%
    19:00 +22°C° 0 mm 1 mps 670 mmHg 34%
    20:00 +21°C° 0 mm 1 mps 670 mmHg 37%
    21:00 +20°C° 0 mm 1 mps 670 mmHg 39%
    22:00 +19°C° 0 mm 1 mps 670 mmHg 42%
    23:00 +19°C° 0 mm 1 mps 670 mmHg 43%

    Tomorrow, 25 June, Tuesday

    Time Temperature Precipitation Wind Pressure Humidity
    00:00 +18°C° 0 mm 1 mps 670 mmHg 45%
    01:00 +16°C° 0 mm 1 mps 670 mmHg 47%
    02:00 +16°C° 0 mm 1 mps 670 mmHg 48%
    03:00 +15°C° 0 mm 1 mps 669 mmHg 49%
    04:00 +15°C° 0 mm 1 mps 669 mmHg 51%
    05:00 +15°C° 0 mm 2 mps 670 mmHg 50%
    06:00 +16°C° 0 mm 2 mps 670 mmHg 50%
    07:00 +16°C° 0 mm 2 mps 671 mmHg 50%
    08:00 +20°C° 0 mm 2 mps 672 mmHg 42%
    09:00 +25°C° 0 mm 3 mps 672 mmHg 34%
    10:00 +29°C° 0 mm 3 mps 673 mmHg 27%
    11:00 +30°C° 0 mm 3 mps 673 mmHg 24%
    12:00 +32°C° 0 mm 2 mps 672 mmHg 21%
    13:00 +34°C° 0 mm 2 mps 672 mmHg 18%
    14:00 +34°C° 0 mm 2 mps 671 mmHg 18%
    15:00 +32°C° 0 mm 2 mps 670 mmHg 18%
    16:00 +32°C° 0 mm 2 mps 670 mmHg 18%
    17:00 +29°C° 0 mm 1 mps 670 mmHg 23%
    18:00 +26°C° 0 mm 1 mps 670 mmHg 27%
    19:00 +23°C° 0 mm 1 mps 669 mmHg 32%
    20:00 +22°C° 0 mm 1 mps 670 mmHg 34%
    21:00 +21°C° 0 mm 1 mps 670 mmHg 35%
    22:00 +20°C° 0 mm 1 mps 670 mmHg 37%
    23:00 +19°C° 0 mm 1 mps 670 mmHg 38%

    Day after tomorrow, 26 June, Wednesday

    Time Temperature Precipitation Wind Pressure Humidity
    00:00 +19°C° 0 mm 1 mps 670 mmHg 39%
    01:00 +18°C° 0 mm 1 mps 670 mmHg 41%
    02:00 +18°C° 0 mm 1 mps 670 mmHg 41%
    03:00 +16°C° 0 mm 2 mps 670 mmHg 42%
    04:00 +16°C° 0 mm 2 mps 669 mmHg 42%
    05:00 +16°C° 0 mm 2 mps 670 mmHg 42%
    06:00 +17°C° 0 mm 2 mps 671 mmHg 42%
    07:00 +17°C° 0 mm 2 mps 671 mmHg 41%
    08:00 +21°C° 0 mm 2 mps 672 mmHg 35%
    09:00 +26°C° 0 mm 3 mps 673 mmHg 29%
    10:00 +30°C° 0 mm 3 mps 673 mmHg 23%
    11:00 +31°C° 0 mm 2 mps 673 mmHg 20%
    12:00 +34°C° 0 mm 2 mps 673 mmHg 17%
    13:00 +35°C° 0 mm 1 mps 672 mmHg 15%
    14:00 +34°C° 0 mm 1 mps 672 mmHg 15%
    15:00 +33°C° 0 mm 1 mps 671 mmHg 15%
    16:00 +32°C° 0 mm 1 mps 671 mmHg 16%
    17:00 +29°C° 0 mm 1 mps 671 mmHg 20%
    18:00 +26°C° 0 mm 1 mps 670 mmHg 24%
    19:00 +23°C° 0 mm 1 mps 670 mmHg 28%
    20:00 +22°C° 0 mm 1 mps 671 mmHg 30%
    21:00 +21°C° 0 mm 1 mps 671 mmHg 31%
    22:00 +21°C° 0 mm 1 mps 671 mmHg 33%
    23:00 +20°C° 0 mm 1 mps 671 mmHg 35%

    27 June, Thursday

    Time Temperature Precipitation Wind Pressure Humidity
    00:00 +19°C° 0 mm 1 mps 670 mmHg 37%
    01:00 +19°C° 0 mm 1 mps 670 mmHg 39%
    02:00 +18°C° 0 mm 1 mps 670 mmHg 39%
    03:00 +18°C° 0 mm 1 mps 670 mmHg 40%
    04:00 +18°C° 0 mm 1 mps 670 mmHg 41%
    05:00 +17°C° 0 mm 2 mps 671 mmHg 41%
    06:00 +18°C° 0 mm 2 mps 671 mmHg 42%
    07:00 +18°C° 0 mm 2 mps 672 mmHg 42%
    08:00 +23°C° 0 mm 2 mps 672 mmHg 36%
    09:00 +27°C° 0 mm 3 mps 673 mmHg 30%
    10:00 +30°C° 0 mm 3 mps 674 mmHg 23%
    11:00 +33°C° 0 mm 3 mps 673 mmHg 20%
    12:00 +35°C° 0 mm 2 mps 673 mmHg 18%
    13:00 +35°C° 0 mm 1 mps 673 mmHg 15%
    14:00 +34°C° 0 mm 1 mps 672 mmHg 15%
    15:00 +35°C° 0 mm 2 mps 672 mmHg 15%
    16:00 +34°C° 0 mm 2 mps 671 mmHg 16%
    17:00 +30°C° 0 mm 2 mps 671 mmHg 20%
    18:00 +27°C° 0 mm 2 mps 671 mmHg 24%
    19:00 +24°C° 0 mm 1 mps 671 mmHg 28%
    20:00 +23°C° 0 mm 1 mps 671 mmHg 30%
    21:00 +22°C° 0 mm 1 mps 671 mmHg 31%
    22:00 +21°C° 0 mm 1 mps 671 mmHg 33%
    23:00 +20°C° 0 mm 1 mps 671 mmHg 35%

    28 June, Friday

    Time Temperature Precipitation Wind Pressure Humidity
    00:00 +19°C° 0 mm 1 mps 670 mmHg 38%
    01:00 +18°C° 0 mm 1 mps 670 mmHg 40%
    02:00 +18°C° 0 mm 1 mps 670 mmHg 41%
    03:00 +16°C° 0 mm 1 mps 670 mmHg 42%
    04:00 +16°C° 0 mm 1 mps 670 mmHg 43%
    05:00 +18°C° 0 mm 1 mps 671 mmHg 43%
    06:00 +17°C° 0 mm 2 mps 671 mmHg 43%
    07:00 +18°C° 0 mm 2 mps 672 mmHg 43%
    08:00 +21°C° 0 mm 2 mps 672 mmHg 37%
    09:00 +26°C° 0 mm 3 mps 673 mmHg 31%
    10:00 +30°C° 0 mm 4 mps 674 mmHg 24%
    11:00 +31°C° 0 mm 3 mps 673 mmHg 22%
    12:00 +33°C° 0 mm 3 mps 673 mmHg 19%
    13:00 +35°C° 0 mm 3 mps 672 mmHg 17%
    14:00 +34°C° 0 mm 2 mps 672 mmHg 17%
    15:00 +34°C° 0 mm 2 mps 671 mmHg 18%
    16:00 +32°C° 0 mm 2 mps 671 mmHg 18%
    17:00 +29°C° 0 mm 2 mps 671 mmHg 23%
    18:00 +26°C° 0 mm 1 mps 671 mmHg 27%
    19:00 +23°C° 0 mm 1 mps 670 mmHg 32%
    20:00 +23°C° 0 mm 1 mps 671 mmHg 33%
    21:00 +22°C° 0 mm 1 mps 671 mmHg 35%
    22:00 +20°C° 0 mm 2 mps 671 mmHg 36%
    23:00 +19°C° 0 mm 2 mps 671 mmHg 37%

    29 June, Saturday

    Time Temperature Precipitation Wind Pressure Humidity
    00:00 +19°C° 0 mm 2 mps 671 mmHg 37%
    01:00 +18°C° 0 mm 2 mps 671 mmHg 38%
    02:00 +17°C° 0 mm 2 mps 671 mmHg 39%
    03:00 +17°C° 0 mm 2 mps 670 mmHg 40%
    04:00 +16°C° 0 mm 2 mps 670 mmHg 42%
    05:00 +17°C° 0 mm 2 mps 671 mmHg 41%
    06:00 +17°C° 0 mm 3 mps 672 mmHg 41%
    07:00 +18°C° 0 mm 3 mps 672 mmHg 40%
    08:00 +21°C° 0 mm 3 mps 673 mmHg 34%
    09:00 +26°C° 0 mm 4 mps 674 mmHg 29%
    10:00 +29°C° 0 mm 4 mps 674 mmHg 23%
    11:00 +30°C° 0 mm 3 mps 674 mmHg 21%
    12:00 +33°C° 0 mm 3 mps 673 mmHg 19%
    13:00 +34°C° 0 mm 2 mps 673 mmHg 17%
    14:00 +34°C° 0 mm 2 mps 672 mmHg 17%
    15:00 +32°C° 0 mm 2 mps 672 mmHg 17%
    16:00 +32°C° 0 mm 2 mps 671 mmHg 17%
    17:00 +29°C° 0 mm 2 mps 671 mmHg 22%
    18:00 +26°C° 0 mm 2 mps 671 mmHg 26%
    19:00 +23°C° 0 mm 2 mps 671 mmHg 30%
    20:00 +21°C° 0 mm 2 mps 671 mmHg 31%
    21:00 +21°C° 0 mm 2 mps 672 mmHg 32%
    22:00 +20°C° 0 mm 2 mps 672 mmHg 32%
    23:00 +19°C° 0 mm 2 mps 671 mmHg 34%
    Show more